Flag for United Kingdom Weather past 2 weeks in Leicester, England, United Kingdom

Now
55 °F

Partly sunny.


Feels Like: 52 °F
Forecast: 52 / 59 °F
Wind: 13 mph from Southwest

Location: East Midlands

Current Time: May 4, 2015 at 11:20:42 AM

Latest Report: May 4, 2015 at 10:50 AM


Visibility: N/A

Pressure: 29.62 "Hg

Humidity: 55%

Dew point: 39 °F

Location of LeicesterLocation

Historic Weather in Leicester — Graph

°F

Leicester temperature yesterday

Maximum temperature yesterday: 66 °F (at 2:20 PM)
Minimum temperature yesterday: 45 °F (at 12:50 AM)
Average temperature yesterday: 54 °F

Past Weeks' High & Low Weather Summary

 TemperatureHumidityPressure
High66 °F (May 3, 2:20 PM)100% (Apr 20, 2:50 AM)30.60 "Hg (Apr 20, 2:50 AM)
Low32 °F (Apr 27, 1:50 AM)28% (Apr 26, 2:50 PM)29.30 "Hg (May 3, 9:20 AM)
Average48 °F71%29.95 "Hg
* Reported Apr 19 10:50 AM — May 4 10:20 AM, Leicester, Weather by CustomWeather, © 2015

Note: Actual official high and low records may vary slightly from our data, if they occured in-between our weather recording intervals... More about our weather records

Advertising

Leicester weather history for previous 24 hours

 ConditionsComfort  
Time TempWeatherWind HumidityBarometerVisibility
10:20 AM
Mon, May 4
54 °FPartly sunny.13 mph63%29.62 "HgN/A
9:50 AM54 °FScattered clouds.15 mph63%29.62 "HgN/A
9:20 AM54 °FScattered clouds.15 mph63%29.62 "HgN/A
8:50 AM54 °FScattered clouds.16 mph67%29.59 "HgN/A
8:20 AM52 °FPassing clouds.15 mph72%29.59 "HgN/A
7:50 AM52 °FPassing clouds.12 mph72%29.59 "HgN/A
7:20 AM50 °FPassing clouds.14 mph76%29.56 "HgN/A
6:50 AM50 °FPartly sunny.13 mph76%29.56 "HgN/A
6:20 AM50 °FPassing clouds.12 mph82%29.53 "HgN/A
5:50 AM50 °FPassing clouds.13 mph82%29.53 "HgN/A
5:20 AM50 °FPassing clouds.15 mph88%29.50 "HgN/A
4:50 AM50 °FPassing clouds.16 mph94%29.50 "HgN/A
4:20 AM52 °FPassing clouds.14 mph88%29.47 "HgN/A
3:50 AM52 °FPassing clouds.17 mph94%29.47 "HgN/A
3:20 AM54 °FPassing clouds.15 mph82%29.47 "HgN/A
2:50 AM52 °FPassing clouds.14 mph94%29.47 "HgN/A
2:20 AM54 °FPassing clouds.16 mph88%29.47 "HgN/A
1:50 AM54 °FSprinkles. Passing clouds.17 mph88%29.45 "HgN/A
1:20 AM54 °FPassing clouds.17 mph88%29.45 "HgN/A
12:50 AM54 °FClear.17 mph88%29.45 "Hg10 mi
12:20 AM54 °FPassing clouds.16 mph88%29.45 "HgN/A
11:50 PM
Sun, May 3
54 °FPassing clouds.16 mph88%29.45 "HgN/A
11:20 PM54 °FPassing clouds.15 mph88%29.45 "HgN/A
10:50 PM54 °FPassing clouds.18 mph88%29.45 "HgN/A
10:20 PM54 °FPassing clouds.17 mph88%29.42 "HgN/A
9:50 PM54 °FPassing clouds.15 mph88%29.42 "HgN/A
9:20 PM54 °FPassing clouds.16 mph88%29.42 "HgN/A
8:50 PM55 °FScattered clouds.17 mph77%29.42 "HgN/A
8:20 PM57 °FScattered clouds.12 mph67%29.39 "HgN/A
7:50 PM59 °FScattered clouds.12 mph63%29.39 "HgN/A
7:20 PM61 °FScattered clouds.16 mph59%29.39 "HgN/A
6:50 PM59 °FScattered clouds.15 mph63%29.39 "HgN/A
6:20 PM61 °FPassing clouds.20 mph59%29.39 "HgN/A
5:50 PM63 °FPassing clouds.23 mph56%29.36 "HgN/A
5:20 PM64 °FPartly sunny.24 mph56%29.36 "HgN/A
4:50 PM66 °FPartly sunny.24 mph56%29.36 "HgN/A
4:20 PM64 °FPartly sunny.23 mph60%29.33 "HgN/A
3:50 PM64 °FPartly sunny.21 mph68%29.33 "HgN/A
3:20 PM66 °FPartly sunny.18 mph60%29.33 "HgN/A
2:50 PM64 °FPartly sunny.16 mph64%29.33 "HgN/A
2:20 PM66 °FPartly sunny.20 mph60%29.33 "HgN/A
1:50 PM64 °FBroken clouds.17 mph73%29.33 "HgN/A
1:20 PM61 °FBroken clouds.18 mph77%29.33 "HgN/A
12:50 PM61 °FPartly sunny.18 mph77%29.33 "HgN/A
12:20 PM59 °FPartly sunny.14 mph82%29.33 "HgN/A
11:50 AM59 °FPartly sunny.13 mph82%29.30 "HgN/A
11:20 AM57 °FBroken clouds.15 mph88%29.30 "HgN/A
Weather by CustomWeather, © 2015

See weather overviewHow to use our weather pages